This is the latest recevied weather packets stored in our database for station/object KC4KQE. If no packets are shown the sender has not sent any weather packets the latest 1 day(s).
| Time | Temp. | Humidity | Pressure | Rain* | Wind** | Luminosity | Snow |
|---|---|---|---|---|---|---|---|
| 1778037856 | 20.56° C | 28% | 1012 hPa | 0 mm | 1.79 m/s, 110° | 0 W/m² | - |
| 1778037556 | 21.11° C | 28% | 1011.9 hPa | 0 mm | 1.79 m/s, 110° | 0 W/m² | - |
| 1778037256 | 21.11° C | 28% | 1011.8 hPa | 0 mm | 1.34 m/s, 110° | 0 W/m² | - |
| 1778036956 | 21.11° C | 28% | 1011.8 hPa | 0 mm | 3.13 m/s, 110° | 0 W/m² | - |
| 1778036656 | 21.11° C | 28% | 1011.7 hPa | 0 mm | 3.13 m/s, 110° | 0 W/m² | - |
| 1778036356 | 21.11° C | 28% | 1011.7 hPa | 0 mm | 1.79 m/s, 110° | 0 W/m² | - |
| 1778036058 | 21.11° C | 27% | 1011.6 hPa | 0 mm | 0.45 m/s, 110° | 0 W/m² | - |
| 1778035756 | 21.11° C | 27% | 1011.5 hPa | 0 mm | 0.89 m/s, 110° | 0 W/m² | - |
| 1778035456 | 21.11° C | 27% | 1011.5 hPa | 0 mm | 1.34 m/s, 110° | 0 W/m² | - |
| 1778035156 | 21.67° C | 27% | 1011.4 hPa | 0 mm | 1.79 m/s, 110° | 0 W/m² | - |
| 1778034856 | 21.67° C | 27% | 1011.4 hPa | 0 mm | 2.24 m/s, 110° | 0 W/m² | - |
| 1778034557 | 21.67° C | 27% | 1011.3 hPa | 0 mm | 2.24 m/s, 110° | 0 W/m² | - |
| 1778034256 | 21.67° C | 27% | 1011.2 hPa | 0 mm | 1.79 m/s, 110° | 0 W/m² | - |
| 1778033956 | 21.67° C | 26% | 1011 hPa | 0 mm | 1.34 m/s, 110° | 0 W/m² | - |
| 1778033656 | 21.67° C | 26% | 1011 hPa | 0 mm | 3.13 m/s, 110° | 5 W/m² | - |
| 1778033356 | 22.22° C | 26% | 1010.9 hPa | 0 mm | 1.79 m/s, 110° | 9 W/m² | - |
| 1778033056 | 22.22° C | 26% | 1010.9 hPa | 0 mm | 2.24 m/s, 110° | 14 W/m² | - |
| 1778032756 | 22.22° C | 27% | 1010.9 hPa | 0 mm | 5.81 m/s, 110° | 25 W/m² | - |
| 1778032456 | 22.22° C | 27% | 1010.8 hPa | 0 mm | 1.34 m/s, 110° | 44 W/m² | - |
| 1778032156 | 22.22° C | 27% | 1010.8 hPa | 0 mm | 1.34 m/s, 110° | 58 W/m² | - |
| 1778031856 | 22.78° C | 27% | 1010.7 hPa | 0 mm | 3.58 m/s, 110° | 77 W/m² | - |
| 1778031556 | 22.78° C | 26% | 1010.7 hPa | 0 mm | 5.36 m/s, 110° | 104 W/m² | - |
| 1778031256 | 22.78° C | 27% | 1010.7 hPa | 0 mm | 1.79 m/s, 110° | 123 W/m² | - |
| 1778030957 | 22.22° C | 27% | 1010.7 hPa | 0 mm | 1.34 m/s, 110° | 137 W/m² | - |
| 1778030658 | 22.22° C | 27% | 1010.6 hPa | 0 mm | 1.34 m/s, 110° | 63 W/m² | - |
* Rain latest hour (hover to see other rain measurements)
** Current wind speed in m/s (hover to see current wind gust speed)